Location: Betzi
(47.2343°N, 9.5260°E)
Time: 21:27:28
(UTC+00:00)

UNK - Pass Details

Date: 27 May 2022
Orbit: 666 x 684 km, 98.2° (Epoch: 29 June)

Event Time Altitude Azimuth Distance (km) Brightness Sun altitude
Exits shadow 01:15:42 18° 162° (SSE) 1,605 5.3 -16.6°
Maximum altitude 01:19:04 85° 73° (ENE) 682 3.7 -16.4°
Drops below altitude 10° 01:23:42 10° 347° (NNW) 2,122 7.0 -16.0°
Sets 01:25:57 0° 347° (NNW) 3,044 7.9 -15.8°
